DW2959 Murcia ES current weather conditions

sailwx.info

Wind from 227

Air temperature 10.6° C
Dewpoint 5.3° C

Last reported at 2017-Nov-23 23:01 UTC.
Time now 2017-Nov-23 23:45 UTC

Location: N 38°00' W 001°02'.
View on Google Maps.

See reports from other nearby stations

  
Tides and Currents Weather Stations Pressure Air Temp Water Temp Dewpoint Dewpoint Depression Visibility Wind Speed Wind Dir Waves Ship Positions
date/time (UTC)wind fromknots sea level pressurealtimeterstation pressurevisibilityair tempwater tempwave heightnotes
2017-Nov-23 23:01 227 10.6
2017-Nov-23 22:46 227 10.6
2017-Nov-23 22:30 227 10.6
2017-Nov-23 22:17 227 11.1
2017-Nov-23 22:00 222 11.7
2017-Nov-23 21:51 222 12.2
2017-Nov-23 21:31 222 12.8
2017-Nov-23 21:15 222 13.3
2017-Nov-23 21:00 222 13.3
2017-Nov-23 20:45 222 12.8
2017-Nov-23 20:30 222 12.2
2017-Nov-23 20:16 222 12.8
2017-Nov-23 20:00 222 12.8
2017-Nov-23 19:45 222 13.3
2017-Nov-23 19:29 222 14.4
2017-Nov-23 19:14 222 15.0
2017-Nov-23 18:58 222 15.6
2017-Nov-23 18:44 222 16.1
2017-Nov-23 18:33 222 16.1
2017-Nov-23 18:14 222 16.7
2017-Nov-23 17:58 222 17.2
2017-Nov-23 17:43 222 18.3
2017-Nov-23 17:28 222 18.9
2017-Nov-23 17:13 222 19.4
2017-Nov-23 16:58 222 20.6
2017-Nov-23 16:43 222 22.2
2017-Nov-23 16:28 222 23.9
2017-Nov-23 16:13 222 25.0
2017-Nov-23 15:58 222 25.0
2017-Nov-23 15:43 222 25.0
2017-Nov-23 15:28 222 24.4
2017-Nov-23 15:13 222 25.0
2017-Nov-23 14:58 222 25.0
2017-Nov-23 14:43 245 24.4
2017-Nov-23 14:28 273 23.9
2017-Nov-23 14:13 290 23.9
2017-Nov-23 13:58 279 1 gusting 6 23.3
2017-Nov-23 13:43 288 1 gusting 6 22.8
2017-Nov-23 13:28 284 22.8
2017-Nov-23 13:13 290 0 gusting 6 22.8
2017-Nov-23 12:58 229 1 gusting 6 22.2
2017-Nov-23 12:43 226 1 gusting 6 21.1
2017-Nov-23 12:28 227 0 gusting 6 20.6
2017-Nov-23 12:12 276 20.0
2017-Nov-23 11:58 294 0 gusting 5 19.4
2017-Nov-23 11:42 242 0 gusting 6 18.3
2017-Nov-23 11:27 238 1 gusting 7 17.8
2017-Nov-23 11:13 266 17.2
2017-Nov-23 10:57 259 16.1
2017-Nov-23 10:42 213 0 gusting 6 15.6
2017-Nov-23 10:27 238 0 gusting 6 15.0
2017-Nov-23 10:12 238 1 gusting 6 14.4
2017-Nov-23 09:57 263 0 gusting 6 13.3
2017-Nov-23 09:42 271 1 gusting 7 12.8
2017-Nov-23 09:27 242 0 gusting 6 12.2
2017-Nov-23 09:12 271 11.7
2017-Nov-23 08:56 289 0 gusting 9 11.1
2017-Nov-23 08:41 275 0 gusting 5 10.6
2017-Nov-23 08:26 239 10.0
2017-Nov-23 08:11 218 9.4
2017-Nov-23 07:56 276 8.9
2017-Nov-23 07:41 286 8.9
2017-Nov-23 07:26 269 1 gusting 6 8.3
2017-Nov-23 07:11 269 2 gusting 7 8.3
2017-Nov-23 06:56 258 8.3
2017-Nov-23 06:41 269 8.3
2017-Nov-23 06:25 260 8.3
2017-Nov-23 06:10 239 8.3
2017-Nov-23 05:55 270 8.9
2017-Nov-23 05:40 263 8.9
2017-Nov-23 05:25 276 8.9
2017-Nov-23 05:10 242 0 gusting 4 8.3
2017-Nov-23 04:57 221 1 gusting 6 8.3
2017-Nov-23 04:40 220 8.3
2017-Nov-23 04:24 232 0 gusting 5 7.8
2017-Nov-23 04:09 271 8.3
2017-Nov-23 03:54 281 8.3
2017-Nov-23 03:42 281 8.3
2017-Nov-23 03:33 277 7.8
2017-Nov-23 03:09 290 7.8
2017-Nov-23 02:54 290 8.3
2017-Nov-23 02:39 274 3 gusting 7 8.3
2017-Nov-23 02:24 221 0 gusting 5 8.3
2017-Nov-23 02:09 244 8.3
2017-Nov-23 01:54 260 8.9
2017-Nov-23 01:42 260 8.9
2017-Nov-23 01:22 260 9.4
2017-Nov-23 01:07 230 9.4
2017-Nov-23 00:53 235 8.9
2017-Nov-23 00:37 263 8.9
2017-Nov-23 00:22 243 8.9
2017-Nov-23 00:07 243 8.9
2017-Nov-22 23:52 243 9.4
2017-Nov-22 23:37 243 9.4
2017-Nov-22 23:21 213 2 gusting 6 10.0
2017-Nov-22 23:06 276 0 gusting 2 10.6
2017-Nov-22 22:50 283 0 gusting 6 10.6
2017-Nov-22 22:36 163 10.0
2017-Nov-22 22:24 135 10.0
2017-Nov-22 22:06 135 10.0
2017-Nov-22 21:51 134 10.0
2017-Nov-22 21:36 135 10.0
2017-Nov-22 21:21 135 10.0
2017-Nov-22 21:06 134 10.6
2017-Nov-22 20:50 134 10.6
2017-Nov-22 20:35 134 11.1
2017-Nov-22 20:19 134 11.1
2017-Nov-22 20:04 134 11.7
2017-Nov-22 19:49 134 11.7
2017-Nov-22 19:34 134 11.7
2017-Nov-22 19:20 134 12.2
2017-Nov-22 19:09 134 12.8
2017-Nov-22 18:48 134 13.3
2017-Nov-22 18:34 134 13.9
2017-Nov-22 18:19 134 14.4
2017-Nov-22 18:04 138 15.6
2017-Nov-22 17:49 138 16.7
2017-Nov-22 17:34 140 16.7
2017-Nov-22 17:18 187 17.8
2017-Nov-22 17:04 188 18.3
2017-Nov-22 16:48 188 18.3
2017-Nov-22 16:34 188 19.4
2017-Nov-22 16:04 140 21.1
2017-Nov-22 15:46 052 21.7
2017-Nov-22 15:32 052 21.7
2017-Nov-22 15:17 052 21.7
2017-Nov-22 15:02 053 21.7
2017-Nov-22 14:47 053 21.1
2017-Nov-22 14:32 055 21.1
2017-Nov-22 14:17 055 20.6
2017-Nov-22 14:00 088 21.1
2017-Nov-22 13:46 088 20.0
2017-Nov-22 13:30 108 20.0
2017-Nov-22 13:15 108 20.0
2017-Nov-22 13:00 236 19.4
2017-Nov-22 12:45 234 18.3
2017-Nov-22 12:30 234 17.2
2017-Nov-22 12:15 234 16.7
2017-Nov-22 12:00 234 0 gusting 4 16.1
2017-Nov-22 11:44 247 15.6
2017-Nov-22 11:32 247 15.0
2017-Nov-22 11:14 238 14.4
2017-Nov-22 10:58 234 14.4
2017-Nov-22 10:44 222 0 gusting 5 13.9
2017-Nov-22 10:28 273 0 gusting 6 13.3
2017-Nov-22 10:13 285 1 gusting 6 12.8
2017-Nov-22 09:58 210 0 gusting 6 12.2
2017-Nov-22 09:43 236 11.7
2017-Nov-22 09:27 283 0 gusting 6 10.6
2017-Nov-22 09:13 274 1 gusting 6 10.0
2017-Nov-22 08:57 267 9.4
2017-Nov-22 08:42 230 2 gusting 9 8.9
2017-Nov-22 08:27 235 1 gusting 8 8.3
2017-Nov-22 08:15 227 3 gusting 8 7.8
2017-Nov-22 07:57 230 0 gusting 7 7.8
2017-Nov-22 07:42 228 7.2
2017-Nov-22 07:27 240 0 gusting 2 7.2
2017-Nov-22 07:12 238 7.2
2017-Nov-22 06:57 235 7.2
2017-Nov-22 06:40 235 6.7
2017-Nov-22 06:25 236 7.2
2017-Nov-22 06:11 236 7.2
2017-Nov-22 05:55 236 7.2
2017-Nov-22 05:40 236 7.8
2017-Nov-22 05:25 238 0 gusting 3 7.8
2017-Nov-22 05:10 246 8.3
2017-Nov-22 04:59 246 8.3
2017-Nov-22 04:40 245 8.3
2017-Nov-22 04:25 234 7.8
2017-Nov-22 04:10 232 8.3
2017-Nov-22 03:54 226 0 gusting 3 7.8
2017-Nov-22 03:39 206 7.8
2017-Nov-22 03:24 173 7.8
2017-Nov-22 03:09 173 7.8
2017-Nov-22 02:53 173 8.3
2017-Nov-22 02:39 173 8.3
2017-Nov-22 02:24 173 8.3
2017-Nov-22 02:07 173 7.8
2017-Nov-22 01:52 062 7.8
2017-Nov-22 01:37 062 7.2
2017-Nov-22 01:22 063 7.2
2017-Nov-22 01:07 063 7.2
2017-Nov-22 00:52 062 7.2
2017-Nov-22 00:39 063 7.8
2017-Nov-22 00:22 063 7.8
2017-Nov-21 23:21 062 8.3
2017-Nov-21 23:06 062 8.9